This demonstration page uses our WeatherBlox Daily Observations layout. Learn more.

40.92945, -100.16068

Hourly Observations for January 8, 2015

Temp ( °F °C ) Dew Point ( °F °C ) Humidity (%) Winds ( mph kmh ) Pressure ( in mb ) Visibility ( mi km ) Precip ( " mm )
12:15 am 00:15 Clear 9 -12.7 0 -18 65 65 S 14 22 30.59 1036 10 16.0934 N/A
12:35 am 00:35 Clear 9 -12.6 1 -17.4 68 68 S 13 20 30.56 1035 10 16.0934 N/A
12:55 am 00:55 Clear 10 -12 1 -17 67 67 S 14 22 30.53 1034 10 16.0934 N/A
1:15 am 01:15 Clear 11 -11.7 2 -16.7 67 67 S 17 28 30.5 1033 10 16.0934 N/A
1:35 am 01:35 Clear 11 -11.5 2 -16.5 67 67 S 14 22 30.45 1031 10 16.0934 N/A
1:55 am 01:55 Clear 12 -11 3 -16.1 66 66 S 14 22 30.45 1031 10 16.0934 N/A
2:15 am 02:15 Clear 13 -10.7 4 -15.7 67 67 S 14 22 30.42 1030 10 16.0934 N/A
2:35 am 02:35 Clear 13 -10.5 4 -15.5 67 67 S 15 24 30.39 1029 10 16.0934 N/A
2:55 am 02:55 Clear 14 -10.2 5 -15.2 67 67 S 8 13 30.39 1029 10 16.0934 N/A
3:15 am 03:15 Clear 14 -10.1 5 -15 68 68 S 16 26 30.36 1028 10 16.0934 N/A
3:35 am 03:35 Clear 14 -10 6 -14.6 69 69 SSW 10 17 30.36 1028 10 16.0934 N/A
3:55 am 03:55 Clear 15 -9.5 7 -14.1 69 69 SSW 15 24 30.3 1026 10 16.0934 N/A
4:15 am 04:15 Clear 15 -9.5 7 -14 70 70 SSW 14 22 30.3 1026 10 16.0934 N/A
4:35 am 04:35 Clear 15 -9.5 8 -13.6 72 72 SSW 16 26 30.27 1025 10 16.0934 N/A
4:55 am 04:55 Partly Cloudy 15 -9.5 8 -13.5 73 73 S 17 28 30.24 1024 10 16.0934 N/A
5:15 am 05:15 Partly Cloudy 15 -9.6 8 -13.3 75 75 S 17 28 30.21 1023 10 16.0934 N/A
5:35 am 05:35 Clear 15 -9.5 8 -13.1 75 75 S 17 28 30.18 1022 10 16.0934 N/A
5:55 am 05:55 Clear 16 -9.1 9 -12.6 76 76 SSW 14 22 30.18 1022 10 16.0934 N/A
6:15 am 06:15 Clear 17 -8.5 10 -12 76 76 SSW 16 26 30.12 1020 10 16.0934 N/A
6:35 am 06:35 Clear 17 -8.3 10 -12 75 75 SSW 14 22 30.09 1019 10 16.0934 N/A
6:55 am 06:55 Partly Cloudy 17 -8.2 11 -11.7 76 76 SW 13 20 30.12 1020 10 16.0934 N/A
7:15 am 07:15 Mostly Cloudy 18 -7.9 12 -11.2 77 77 SW 9 15 30.12 1020 10 16.0934 N/A
7:35 am 07:35 Partly Cloudy 18 -8 12 -11.3 77 77 WSW 8 13 30.12 1020 10 16.0934 N/A
7:55 am 07:55 Partly Cloudy 18 -7.8 12 -11 78 78 W 8 13 30.12 1020 10 16.0934 N/A
8:15 am 08:15 Mostly Cloudy 18 -7.7 13 -10.7 79 79 W 5 7 30.12 1020 10 16.0934 N/A
8:35 am 08:35 Partly Cloudy 19 -7.1 13 -10.3 78 78 WSW 3 6 30.15 1021 10 16.0934 N/A
8:55 am 08:55 Partly Cloudy 20 -6.7 14 -9.9 78 78 W 5 7 30.15 1021 10 16.0934 N/A
9:15 am 09:15 Sunny 20 -6.5 15 -9.7 78 78 W 6 9 30.15 1021 10 16.0934 N/A
9:35 am 09:35 Partly Cloudy 22 -5.6 16 -9.1 77 77 W 7 11 30.15 1021 10 16.0934 N/A
9:55 am 09:55 Mostly Cloudy 24 -4.6 17 -8.3 76 76 WNW 9 15 30.12 1020 10 16.0934 N/A
10:15 am 10:15 Partly Cloudy 25 -4 18 -7.7 76 76 WNW 10 17 30.12 1020 10 16.0934 N/A
10:35 am 10:35 Sunny 27 -2.8 20 -6.7 75 75 WNW 10 17 30.12 1020 10 16.0934 N/A
10:55 am 10:55 Sunny 30 -1.1 23 -5.1 75 75 WNW 13 20 30.09 1019 10 16.0934 N/A
11:15 am 11:15 Sunny 33 0.8 26 -3.6 73 73 NW 12 19 30.06 1018 10 16.0934 N/A
11:35 am 11:35 Sunny 36 2.3 28 -2.5 71 71 WNW 13 20 30.09 1019 10 16.0934 N/A
11:55 am 11:55 Sunny 38 3.6 29 -1.6 69 69 WNW 9 15 30.03 1017 10 16.0934 N/A
12:15 pm 12:15 Sunny 41 5.2 32 -0.2 68 68 NW 17 28 30.03 1017 10 16.0934 N/A
12:35 pm 12:35 Sunny 43 6.3 32 0 64 64 NNW 17 28 30.06 1018 10 16.0934 N/A
12:55 pm 12:55 Sunny 44 6.5 32 0.1 64 64 NNW 29 46 30.03 1017 10 16.0934 N/A
1:15 pm 13:15 Sunny 43 6.3 33 0.3 66 66 NNW 25 41 30.06 1018 10 16.0934 N/A
1:35 pm 13:35 Sunny 43 6.2 33 0.5 67 67 NNW 18 30 30.06 1018 10 16.0934 N/A
1:55 pm 13:55 Sunny 43 6 33 0.7 69 69 N 16 26 30.06 1018 10 16.0934 N/A
2:15 pm 14:15 Sunny 43 5.9 32 0 66 66 N 25 41 30.09 1019 10 16.0934 N/A
2:35 pm 14:35 Sunny 42 5.6 32 -0.1 67 67 NNW 25 41 30.09 1019 10 16.0934 N/A
2:55 pm 14:55 Partly Cloudy 41 5.1 32 0 70 70 N 22 35 30.09 1019 10 16.0934 N/A
3:15 pm 15:15 Cloudy 38 3.3 31 -0.8 75 75 N 26 43 30.15 1021 10 16.0934 N/A
3:55 pm 15:55 Cloudy 35 1.4 28 -2.2 77 77 N 25 41 30.24 1024 10 16.0934 N/A
4:15 pm 16:15 Cloudy 32 0.1 24 -4.5 72 72 N 25 41 30.27 1025 10 16.0934 N/A
4:35 pm 16:35 Cloudy 31 -0.4 22 -5.4 69 69 N 30 48 30.3 1026 10 16.0934 N/A
4:55 pm 16:55 Cloudy 30 -1 22 -5.8 70 70 N 23 37 30.33 1027 10 16.0934 N/A
5:15 pm 17:15 Cloudy 29 -1.8 19 -7.2 67 67 N 31 50 30.36 1028 10 16.0934 N/A
5:35 pm 17:35 Cloudy 28 -2.2 18 -7.7 66 66 NNW 30 48 30.39 1029 10 16.0934 N/A
5:55 pm 17:55 Cloudy 27 -3 17 -8.2 68 68 N 28 44 30.42 1030 10 16.0934 N/A
6:15 pm 18:15 Cloudy 25 -4 14 -10 63 63 N 24 39 30.45 1031 10 16.0934 N/A
6:35 pm 18:35 Cloudy 23 -4.8 12 -11.2 61 61 N 25 41 30.45 1031 10 16.0934 N/A
6:55 pm 18:55 Cloudy 22 -5.5 12 -11 66 66 N 28 44 30.48 1032 10 16.0934 N/A
7:15 pm 19:15 Cloudy 22 -5.7 10 -12 62 62 N 30 48 30.5 1033 10 16.0934 N/A
7:35 pm 19:35 Mostly Cloudy 21 -6 11 -11.5 65 65 N 25 41 30.5 1033 10 16.0934 N/A
7:55 pm 19:55 Partly Cloudy 21 -6 12 -11.1 68 68 N 21 33 30.5 1033 10 16.0934 N/A
8:15 pm 20:15 Partly Cloudy 21 -6.2 11 -11.8 65 65 N 24 39 30.53 1034 10 16.0934 N/A
8:35 pm 20:35 Mostly Cloudy 20 -6.5 10 -12.2 64 64 N 22 35 30.53 1034 10 16.0934 N/A
8:55 pm 20:55 Partly Cloudy 20 -6.6 10 -12.1 65 65 NNW 15 24 30.56 1035 10 16.0934 N/A
9:15 pm 21:15 Clear 20 -6.9 10 -12 67 67 NNW 15 24 30.56 1035 10 16.0934 N/A
9:35 pm 21:35 Clear 19 -7.1 9 -12.7 65 65 NNW 15 24 30.56 1035 10 16.0934 N/A
9:55 pm 21:55 Clear 19 -7.3 9 -12.7 66 66 NNW 17 28 30.56 1035 10 16.0934 N/A
10:15 pm 22:15 Clear 19 -7.5 8 -13.3 64 64 NNW 17 28 30.56 1035 10 16.0934 N/A
10:35 pm 22:35 Clear 18 -7.7 9 -13 66 66 NNW 15 24 30.62 1037 10 16.0934 N/A
10:55 pm 22:55 Clear 18 -7.7 4 -15.3 55 55 N 22 35 30.62 1037 10 16.0934 N/A
11:15 pm 23:15 Clear 17 -8.2 6 -14.7 60 60 N 15 24 30.62 1037 10 16.0934 N/A
11:35 pm 23:35 Clear 17 -8.4 4 -15.6 56 56 NNW 18 30 30.62 1037 10 16.0934 N/A
11:55 pm 23:55 Clear 17 -8.5 4 -15.5 57 57 NNW 17 28 30.65 1038 10 16.0934 N/A

Powered by AerisWeather